STARLINK-34600, 64699

Orbit data source: Space-Track

STARLINK-34600, 64699 is a payload satellite owned by SpaceX/Seattle (US) in LEO that was launched on Sat, 28 Jun 2025 UTC via an FALCON 9 launch vehicle from the Air Force Western Test Range (AFWTR). Payload-class satellites include a variety of spacecraft equipped with specific instruments for various scientific and technological missions. These include communications satellites like Starlink; space stations such as the ISS; scientific satellites like the Hubble; Earth observation satellites from companies like Planet Labs, Umbra, and HawkEye 360; GPS; miniature CubeSats for education and research; and military/defense satellites.

Loading next visibility...
Identifier
64699, 2025-142D
Orbit
LEO
Country
Flag of USUS
Related business
Manufacturer
SpaceX/Seattle
Mission
Operational Commercial Communications
Bus & Motor
STARLINK V2MO, Unknown motor
Mass
575 kg wet, ~530 kg dry
Launch date (UTC)
2025-06-28 (1 year ago)
Launch vehicle
FALCON 9
Launch site
Air Force Western Test Range (AFWTR)
Object type
Payload
Rocket body
Debris
Shape & HBR
Box + 1 Pan, 17.7 m
Radar Cross Section
41.120 m², Large (>1 m²)

Expand to show TLE details & history
Last TLE update: 13 hours ago

TLE from 13 hours ago
0 STARLINK-34600
1 64699U 25142D   26264.20745984  .00005922  00000-0  21029-3 0  9992
2 64699  70.0006 178.8242 0002798 275.8921  84.1935 15.29578819 68831
Epoch: 2026-09-21T04:58Z
TLE epoch observation values (Epoch: 2026-09-21T04:58:44.530Z)
Latitude
-0.00002°
Longitude
104.04805°
Altitude
479.334 km
Speed
7.626 km/s
True Right ascension
11h 55m 17s
True Declination
0° 00' 00"
Sunlit
Object was in daylight at epoch
Visualization orbit readout
Latitude
Unknown
Longitude
Unknown
Altitude
Unknown
Speed
Unknown
Apparent Right ascension
Unknown
Apparent Declination
Unknown
Sunlit
N/A
Visualization observer readout
Local Sidereal Time
10:57:21
Azimuth
Unknown
Elevation
Unknown
Doppler factor
Unknown
Orbital elements
Apogee altitude
476.908 km
Perigee altitude
473.073 km
Semi-major axis
6,853.127 km
Eccentricity
0.00028
Inclination
70.0006°
RAAN
178.8242°
Arg. of periapsis
275.8921°
True anomaly
84.2254°
Mean anomaly
84.1935°
Eccentric anomaly
84.20945°
Mean motion
3.82569 °/min
Orbital period
94.1 mins
BSTAR
0.00021029
Loading maneuver chart data...
Computing Atmospheric mass density...
Loading historical data...
Loading historical data...
Loading historical data...
Loading historical data...
Loading historical data...
Loading historical data...
Loading historical data...

Documentation

Showing up to 5 results
|